This is the latest recevied weather packets stored in our database for station/object C31FR-13. If no packets are shown the sender has not sent any weather packets the latest 10 day(s).
| Time | Temp. | Humidity | Pressure | Rain* | Wind** | Luminosity | Snow |
|---|---|---|---|---|---|---|---|
| 1777886163 | 15° C | 64% | 1013.3 hPa | - | - | - | - |
| 1777885563 | 14.44° C | 66% | 1013.4 hPa | - | - | - | - |
| 1777884963 | 14.44° C | 66% | 1013.5 hPa | - | - | - | - |
| 1777884363 | 14.44° C | 73% | 1013.6 hPa | - | - | - | - |
| 1777884062 | 13.89° C | 82% | 1013.5 hPa | - | - | - | - |
| 1777883763 | 13.89° C | 84% | 1013.6 hPa | - | - | - | - |
| 1777882864 | 13.89° C | 76% | 1013.8 hPa | - | - | - | - |
| 1777882563 | 13.33° C | 78% | 1013.7 hPa | - | - | - | - |
| 1777882263 | 13.89° C | 79% | 1013.7 hPa | - | - | - | - |
| 1777881962 | 13.33° C | 87% | 1013.8 hPa | - | - | - | - |
| 1777881663 | 13.33° C | 85% | 1013.9 hPa | - | - | - | - |
| 1777881363 | 13.33° C | 88% | 1014 hPa | - | - | - | - |
| 1777880763 | 12.78° C | 85% | 1014.1 hPa | - | - | - | - |
| 1777880463 | 12.78° C | 87% | 1014.1 hPa | - | - | - | - |
| 1777880162 | 12.78° C | 92% | 1014.1 hPa | - | - | - | - |
| 1777879863 | 12.78° C | 94% | 1014.2 hPa | - | - | - | - |
| 1777879562 | 12.78° C | 96% | 1014.2 hPa | - | - | - | - |
| 1777879262 | 12.22° C | 95% | 1014.2 hPa | - | - | - | - |
| 1777878962 | 12.22° C | 93% | 1014.2 hPa | - | - | - | - |
| 1777878663 | 12.22° C | 99% | 1014.2 hPa | - | - | - | - |
| 1777878362 | 12.22° C | 97% | 1014.2 hPa | - | - | - | - |
| 1777878063 | 12.22° C | 96% | 1014.3 hPa | - | - | - | - |
| 1777877763 | 12.22° C | 96% | 1014.3 hPa | - | - | - | - |
| 1777877462 | 11.67° C | 98% | 1014.3 hPa | - | - | - | - |
| 1777877163 | 11.67° C | 97% | 1014.3 hPa | - | - | - | - |
* Rain since midnight (hover to see other rain measurements)
** Current wind speed in m/s (hover to see current wind gust speed)